Location: Newark
(53.7833°N, 9.4833°E)
Time: 11:49:03
(UTC+00:00)

Envisat - Pass Details

Date: 13 December 2019
Orbit: 764 x 766 km, 98.1° (Epoch: 26 January)

Event Time Altitude Azimuth Distance (km) Brightness Sun altitude
Rises 17:26:18 0° 176° (S) 3,223 6.3 -19.9°
Reaches altitude 10° 17:28:38 10° 180° (S) 2,301 5.6 -20.3°
Maximum altitude 17:33:38 58° 259° (W) 898 3.6 -21.0°
Drops below altitude 10° 17:38:40 10° 339° (NNW) 2,318 5.6 -21.7°
Sets 17:41:02 0° 343° (NNW) 3,249 6.3 -22.1°
